Location: Albany
(42.6526°N, 73.7562°W)
Time: 14:35:22
(UTC+00:00)

YAOGAN 1 - Pass Details

Date: 19 November 2019
Orbit: 619 x 621 km, 98.0° (Epoch: 04 December)

Event Time Altitude Azimuth Distance (km) Brightness Sun altitude
Rises 22:47:41 0° 146° (SE) 2,884 5.8 -14.4°
Reaches altitude 10° 22:49:57 10° 138° (SE) 1,982 4.9 -14.8°
Maximum altitude 22:53:56 38° 71° (ENE) 955 3.0 -15.5°
Drops below altitude 10° 22:57:57 10° 3° (N) 1,995 5.0 -16.2°
Sets 23:00:15 0° 356° (N) 2,906 5.9 -16.7°
